www.pogodaiklimat.ru

Погода и климат >> Архив погоды >> Канада >> Онтарио >> Борден


ПОГОДА в Бордене

  • Прогноз погоды в Бордене
  • Монитор погоды в Бордене

АРХИВ ПОГОДЫ в Бордене

Время (UTC), дата Ветер
(напр.,м/с)
 
Видим.   Явления Облачность Т
(С)
Тd
(С)
f
(%)
Тe
(С)
Тes
(С)
Комфортность P
(гПа)
Po
(гПа)
Тmin
(С)
Tmax
(С)
R
(мм)
R24
(мм)
S
(см)
06 19.03 штиль 0 14 км 5/0
[]
-5.7 -7.1 90 -7 -7 1027.9 1000.0 18
09 19.03 штиль 0 14 км 10/10 1500 м
[]
-7.5 -8.3 94 -8 -8 1027.7 999.8
12 19.03 штиль 0 14 км 5/5 1500 м
[]
-6.8 -7.4 95 -8 -7 1028.5 1000.5 -8.6
15 19.03 штиль 0 14 км 10/10 1000 м
[]
+1.6 -3.2 70 +1 +1 1029.2 1001.4
18 19.03 З 3 14 км 5/5 1500 м
[]
+3.1 -3.9 60 0 +5 1029.2 1001.4
21 19.03 З 4 14 км 10/10 1000 м
[]
+5.1 -5.2 47 +2 +2 1027.5 999.7
00 20.03 штиль 0 14 км 9/9 1500 м
[]
+0.3 -5.1 67 -0 -0 1027.1 999.2
03 20.03 Ю 1 14 км ясно -3.4 -5.2 87 -6 -6 1026.3 998.6
06 20.03 ЮВ 2 14 км ясно -3.5 -5.5 86 -8 -8 1025.0 997.4
09 20.03 ЮВ 4 14 км ясно -0.7 -3.2 83 -6 -6 1023.1 995.7
12 20.03 Ю 3 14 км ясно -0.6 -3.2 83 -5 -5 1023.1 995.5 -4.4
15 20.03 ЮЗ 6 14 км ясно +6.1 -2.4 54 +2 +6 1022.6 995.1
18 20.03 Ю 8 14 км 5/5 1000 м
[]
+8.3 -3.0 45 +4 +6 1020.7 993.3
21 20.03 Ю 5 14 км 9/9 1500 м
[]
+8.2 -1.8 49 +5 +5 1018.5 991.3
00 21.03 ЮЗ 3 14 км 5/0 2000 м
[]
+5.5 -1.9 59 +3 +3 1018.5 991.2
03 21.03 Ю 2 14 км 10/10 1500 м
[]
+2.3 +0.5 88 -1 -1 1018.4 991.2
06 21.03 ЮВ 4 14 км слаб. дождь 10/10 600 м
[]
+2.5 +0.8 89 -2 -2 1017.0 989.9 17
09 21.03 ЮВ 2 4000 м слаб. дождь 10/10 200 м
[]
+1.8 +1.6 99 -1 -1 1015.2 988.1
12 21.03 Ю 3 3700 м слаб. дождь 10/10 100 м
[]
+2.5 +2.5 100 -2 -2 1014.3 987.2 +1.6
15 21.03 Ю 3 11 км 5/5 300 м
[]
+4.9 +3.6 91 +2 +5 1013.2 986.1
18 21.03 Ю 4 14 км 10/10 300 м
[]
+6.3 +3.2 81 +3 +3 1011.2 984.2
21 21.03 З 2 14 км 9/9 600 м
[]
+7.4 +2.3 70 +5 +6 1009.0 982.1
03 22.03 СЗ 2 11 км 10/10 300 м
[]
+2.5 +2.3 99 -1 -1 1008.7 981.7
06 22.03 З 2 11 км 10/10 300 м
[]
+1.2 +1.2 100 -3 -3 1006.8 979.9
09 22.03 З 2 14 км осадки 10/10 600 м
[]
+1.5 +0.8 95 -1 -1 1004.4 977.6
12 22.03 СЗ 2 9000 м осадки 10/10 600 м
[]
+0.8 +0.6 99 -2 -2 1004.3 977.4 +0.7
15 22.03 СЗ 7 14 км осадки 10/10 300 м
[]
-0.5 -1.0 96 -8 -8 1005.6 978.6 1
18 22.03 СЗ 8 3700 м слаб. снег {осадки} ?/? -2.0 -4.5 83 -10 -10 1008.2 981.0 +1.7 2
21 22.03 СЗ 9 14 км слаб. снег 10/10 600 м
[]
-2.7 -7.4 70 -11 -11 1009.5 982.3
00 23.03 СЗ 8 14 км {осадки} 10/10 600 м
[]
-2.9 -8.0 68 -11 -11 1012.4 985.1 -3.2 +0.9 0.5
03 23.03 С 7 14 км 10/10 600 м
[]
-3.8 -10.4 60 -11 -11 1015.3 987.8
06 23.03 СЗ 7 14 км ясно -6.0 -12.2 61 -14 -14 1016.5 988.9 -6.1 +1.7 231
18 23.03 СЗ 4 14 км 5/0
[]
+1.7 -10.8 39 -2 +4 1022.9 995.2
21 23.03 СЗ 3 14 км ясно +2.8 -8.0 45 -1 +3 1022.2 994.5 0.5
00 24.03 ЮЗ 1 14 км ясно -1.1 -8.8 56 -3 -3 994.2 0.5
03 24.03 Ю 3 14 км ясно -0.7 -8.8 54 -5 -5 993.6
06 24.03 З 5 14 км ясно +3.1 -6.0 51 -1 -1 1019.1 991.8
09 24.03 З 5 14 км ясно +2.8 -5.3 55 -2 -2 1018.8 991.5
21 24.03 СЗ 5 14 км ясно +4.3 -1.0 68 -0 +2 1016.8 989.6
00 25.03 СЗ 4 14 км 10/10 300 м
[]
-0.9 -3.1 85 -6 -6 1019.6 992.2
03 25.03 СЗ 4 14 км 10/10 300 м
[]
-1.7 -5.1 78 -7 -7 994.3
09 25.03 СЗ 2 14 км ясно -6.1 -8.1 86 -10 -10 1023.2 995.6
12 25.03 С 2 14 км ясно -6.2 -12.2 62 -9 -9 1026.0 998.1
15 25.03 СВ 2 14 км ясно -2.4 -17.5 30 -5 +3 1026.0 998.2
18 25.03 С 5 14 км ясно +0.3 -18.1 24 -4 +3 1024.6 996.9 +1.3
21 25.03 С 4 14 км 5/0
[]
+1.2 -15.8 27 -3 0 1022.9 995.2 0.5
00 26.03 З 2 14 км ясно -2.7 -11.3 52 -5 -5 1023.7 995.9 -7.5 +1.6 0.5
03 26.03 СЗ 1 14 км ясно -4.1 -11.2 58 -6 -6 1025.4 997.6

 

Местоположение метеостанции Борден (Онтарио, Канада): широта 44.25 долгота -79.91 высота над уровнем моря 223 м.

В архиве по умолчанию представлена погода в Бордене за последнюю неделю. Архивные данные за месяц целиком и за предыдущие месяцы, начиная с января 2011 года, Вы можете получить, выбрав интересующий диапазон дат из раскрывающегося списка и нажав кнопку "Ввод!".


*Определитесь, кто Вы:
робот инопланетянин человек

Внимание! Время в таблицах - всемирное. Для получения местного времени необходимо прибавить поправку, которая равна -5 ч.

Смотрите также архив погоды в соседних городах и на ближайших метеорологических станциях:

Погода в Эгберте (Онтарио, Канада) (11 км)
Погода в Питерборо (Онтарио, Канада) (18 км)
Погода в Коллингвуде (Онтарио, Канада) (37 км)
Погода в Барри (Онтарио, Канада) (38 км)
Погода в Шируотере (Новая Шотландия, Канада) (61 км)
Погода в Торонто Баттонвилл (Онтарио, Канада) (61 км)
Погода в Сешелте (Британская Колумбия, Канада) (63 км)
Погода в Лагун-Сити (Онтарио, Канада) (64 км)
Погода в Тадоул Лейк (Манитоба, Канада) (67 км)
Погода в Торонто (Онтарио, Канада) (68 км)

Пояснения к столбцам:

Ветер - указаны скорость ветра в м/с - средняя за 10 мин, порывы в срок и между сроками (в фигурных скобках) и направление, откуда дует ветер: С - северный, СВ - северо-восточный, В - восточный, ЮВ - юго-восточный, Ю - южный, ЮЗ - юго-западный, З - западный, СЗ - северо-западный.
Видимость - горизонтальная дальность видимости в метрах или километрах. При видимости от 1 до 10 км при отсутствии осадков обычно наблюдается дымка, при ухудшении видимости до 1 км и менее - туман. В сухую погоду видимость может ухудшаться дымом, пылью или мглою.
Явления - указаны атмосферные явления, наблюдавшиеся в срок или в последний час перед сроком; фигурными скобками обозначены явления, наблюдавшиеся между сроками (за 1-3 часа до срока); квадратными скобками обозначены град или гололедные отложения с указанием их диаметра в мм.
Облачность - указаны через наклонную черту общая и нижняя облачность в баллах и высота нижней границы облаков в метрах; квадратными скобками обозначены формы облаков: Ci - перистые, Cs - перисто-слоистые, Cc - перисто-кучевые, Ac - высококучевые, As - высокослоистые, Sc - слоисто-кучевые, Ns - слоисто-дождевые, Cu - кучевые, Cb - кучево-дождевые. Подробнее классификацию облаков см. в Атласе облаков (PDF).
T - Температура воздуха - температура, измеренная на высоте 2 м над землей.
Td - Температура точки росы - температура, при понижении до которой содержащийся в воздухе водяной пар достигнет насыщения.
f - Относительная влажность воздуха - влажноcть воздуха, измеренная на высоте 2 м над землей.
Te - Эффективная температура - температура, которую ощущает одетый по сезону человек в тени. Характеристика душности погоды. При расчете учитывается влияние влажности воздуха и скорости ветра на теплоощущения человека.
Tes - Эффективная температура на солнце - температура, которую ощущает человек, с поправкой на солнечный нагрев. Характеристика знойности погоды. Зависит от высоты солнца над горизонтом, облачности и скорости ветра. Ночью, в пасмурную погоду, а также при ветре 12 м/с и более поправка равна нулю.
P - Атмосферное давление - приведенное к уровню моря атмосферное давление.
Po - Атмосферное давление - измеренное на уровне метеостанции атмосферное давление.
Tmin - Минимальная температура - минимум температуры воздуха на высоте 2 м над землей.
Tmax - Максимальная температура - максимум температуры воздуха на высоте 2 м над землей.
R - Количество осадков - Количество выпавших осадков за период времени, мм. При наведении курсора мыши на число - период времени, за который выпало указанное количество осадков.
R24 - Количество осадков - Количество выпавших осадков за 24 часа, мм.
S - Снежный покров - Высота снежного покрова, см. При наведении курсора мыши на число - состояние снежного покрова и степень покрытия местности в баллах.